Tracking 19164 objects as of 21-May-2018
HD Live streaming from Space Station
objects crossing your sky now

OICETS

Track OICETS now!
10-day predictions
OICETS is classified as:


NORAD ID: 28809
Int'l Code: 2005-031A
Perigee: 568.8 km
Apogee: 579.6 km
Inclination: 98.0 °
Period: 96.0 minutes
Semi major axis: 6945 km
RCS: 1.711 m2 (large)
Launch date: August 23, 2005
Source: Japan (JPN)
Launch site: TYURATAM MISSILE AND SPACE COMPLEX (TTMTR)

Study inter-satellite communications.
aabbcc
Your satellite tracking list
Your tracking list is empty




NASA's NSSDC Master Catalog

Two Line Element Set (TLE):
1 28809U 05031A   18141.21037970 -.00000646  00000-0 -46929-4 0  9992
2 28809  97.9530 225.6430 0007774 263.2579  96.7759 14.99947525694808
Source of the keplerian elements: AFSPC